Weather History for KPLN - December, 2011

Change the Weather History Date:

Friday, December 23, 2011

  Actual Average Record
Temperature  
Mean Temperature 20 °F -  
Max Temperature 24 °F 29 °F 49 °F (1957)
Min Temperature 15 °F 14 °F -18 °F (1989)
Degree Days  
Heating Degree Days 46    
Moisture  
Dew Point 17 °F    
Average Humidity 87    
Maximum Humidity 96    
Minimum Humidity 77    
Precipitation  
Precipitation 0.00 in - - ()
Sea Level Pressure  
Sea Level Pressure 30.26 in    
Wind  
Wind Speed 3 mph (ESE)    
Max Wind Speed 12 mph    
Max Gust Speed -    
Visibility 6 miles    
Events Snow    
Averages and records for this station are not official NWS values.
T = Trace of Precipitation, MM = Missing Value Source: NWS Daily Summary

Daily Weather History Graph

Daily Weather History Graph

Search for Another Location

Airport or City:

Trip Planner

Search our weather history database for the weather conditions in past years. The results will help you decide how hot, cold, wet, or windy it might be!

Date:

Astronomy

Dec. 23, 2011 Rise Set
Actual Time 8:17 AM EST 4:59 PM EST
Civil Twilight 7:43 AM EST 5:33 PM EST
Nautical Twilight 7:05 AM EST 6:11 PM EST
Astronomical Twilight 6:29 AM EST 6:47 PM EST
Moon 7:06 AM EST (12/23) 4:06 PM EST (12/23)
Length of Visible Light 9h 50m
Length of Day
8h 41m
Waning Crescent, 1% of the Moon is Illuminated
Dec 23
Waning Crescent
Dec 24
New
Jan 1
First Quarter
Jan 9
Full
Jan 16
Last Quarter

Hourly Weather History & Observations

Time (EST) Temp. Windchill Dew Point Humidity Pressure Visibility Wind Dir Wind Speed Gust Speed Precip Events Conditions
12:54 AM 17.6 °F - 14.0 °F 86% 30.21 in 10.0 mi Calm Calm - N/A   Partly Cloudy
1:54 AM 15.1 °F - 12.0 °F 88% 30.26 in 10.0 mi Calm Calm - N/A   Mostly Cloudy
2:54 AM 18.0 °F - 15.1 °F 88% 30.27 in 9.0 mi Calm Calm - N/A   Overcast
3:07 AM 19.4 °F - 15.8 °F 86% 30.24 in 6.0 mi Calm Calm - N/A Snow Light Snow
3:35 AM 19.4 °F - 15.8 °F 86% 30.24 in 10.0 mi Calm Calm - 0.00 in   Overcast
3:54 AM 21.0 °F - 17.1 °F 85% 30.27 in 3.0 mi Calm Calm - 0.00 in Snow Light Snow
4:10 AM 19.4 °F 14.3 °F 15.8 °F 86% 30.23 in 3.0 mi ENE 3.5 mph - 0.00 in Snow Light Snow
4:15 AM 19.4 °F - 15.8 °F 86% 30.23 in 2.5 mi Calm Calm - 0.00 in Snow Light Snow
4:30 AM 19.4 °F 14.3 °F 15.8 °F 86% 30.23 in 6.0 mi ENE 3.5 mph - 0.00 in Snow Light Snow
4:54 AM 19.9 °F 12.1 °F 16.0 °F 85% 30.27 in 8.0 mi ENE 5.8 mph - 0.00 in Snow Light Snow
5:34 AM 19.4 °F 12.8 °F 15.8 °F 86% 30.24 in 2.5 mi NE 4.6 mph - 0.00 in Snow Light Snow
5:50 AM 17.6 °F - 15.8 °F 93% 30.25 in 4.0 mi Calm Calm - 0.00 in Snow Light Snow
5:54 AM 18.0 °F - 15.1 °F 88% 30.30 in 4.0 mi Calm Calm - 0.00 in Snow Light Snow
6:54 AM 18.0 °F 12.7 °F 15.1 °F 88% 30.31 in 9.0 mi SE 3.5 mph - 0.00 in   Overcast
7:54 AM 19.0 °F 12.3 °F 16.0 °F 88% 30.31 in 4.0 mi ESE 4.6 mph - 0.00 in Snow Light Snow
8:18 AM 19.4 °F 12.8 °F 15.8 °F 86% 30.27 in 2.5 mi East 4.6 mph - 0.00 in Snow Light Snow
8:30 AM 19.4 °F 12.8 °F 15.8 °F 86% 30.27 in 2.0 mi ESE 4.6 mph - 0.00 in Snow Light Snow
8:39 AM 19.4 °F 12.8 °F 15.8 °F 86% 30.27 in 1.8 mi ESE 4.6 mph - 0.00 in Snow Light Snow
8:54 AM 19.0 °F 11.1 °F 16.0 °F 88% 30.31 in 2.0 mi East 5.8 mph - 0.00 in Snow Light Snow
9:13 AM 19.4 °F 12.8 °F 15.8 °F 86% 30.27 in 1.5 mi ESE 4.6 mph - 0.00 in Snow Light Snow
9:25 AM 19.4 °F 11.5 °F 15.8 °F 86% 30.27 in 2.0 mi ESE 5.8 mph - 0.00 in Snow Light Snow
9:37 AM 19.4 °F 11.5 °F 17.6 °F 93% 30.27 in 2.0 mi ESE 5.8 mph - N/A Snow Light Snow
9:47 AM 19.4 °F 12.8 °F 17.6 °F 93% 30.28 in 3.0 mi East 4.6 mph - 0.00 in Snow Light Snow
9:54 AM 19.9 °F 12.1 °F 17.1 °F 89% 30.32 in 4.0 mi ESE 5.8 mph - 0.00 in Snow Light Snow
10:10 AM 19.4 °F 10.4 °F 17.6 °F 93% 30.28 in 2.5 mi ESE 6.9 mph - 0.00 in Snow Light Snow
10:23 AM 21.2 °F 12.6 °F 17.6 °F 86% 30.28 in 4.0 mi ESE 6.9 mph - 0.00 in Snow Light Snow
10:54 AM 21.0 °F 10.6 °F 16.0 °F 81% 30.31 in 8.0 mi ESE 9.2 mph - 0.00 in   Overcast
11:06 AM 21.2 °F 10.9 °F 17.6 °F 86% 30.27 in 7.0 mi ESE 9.2 mph - N/A   Overcast
11:45 AM 21.2 °F 9.5 °F 17.6 °F 86% 30.25 in 10.0 mi SE 11.5 mph - N/A   Overcast
11:54 AM 21.9 °F 11.7 °F 17.1 °F 82% 30.29 in 9.0 mi SE 9.2 mph - N/A   Overcast
12:54 PM 21.9 °F 11.0 °F 17.1 °F 82% 30.27 in 9.0 mi SE 10.4 mph - N/A   Overcast
1:54 PM 23.0 °F 14.7 °F 18.0 °F 81% 30.26 in 10.0 mi SE 6.9 mph - N/A   Overcast
2:52 PM 23.0 °F 13.1 °F 17.6 °F 80% 30.20 in 10.0 mi SE 9.2 mph - N/A   Overcast
2:54 PM 23.0 °F 13.1 °F 18.0 °F 81% 30.24 in 9.0 mi SE 9.2 mph - N/A   Overcast
3:54 PM 24.1 °F 15.2 °F 18.0 °F 77% 30.24 in 10.0 mi SE 8.1 mph - N/A   Overcast
4:54 PM 24.1 °F 16.0 °F 19.0 °F 81% 30.23 in 10.0 mi SE 6.9 mph - N/A   Overcast
5:54 PM 24.1 °F 14.4 °F 21.0 °F 88% 30.23 in 5.0 mi SE 9.2 mph - 0.00 in Snow Light Snow
6:54 PM 24.1 °F 16.0 °F 21.0 °F 88% 30.24 in 4.0 mi SSE 6.9 mph - 0.00 in   Overcast
7:54 PM 24.1 °F 14.4 °F 21.0 °F 88% 30.23 in 7.0 mi SE 9.2 mph - N/A   Overcast
8:54 PM 23.0 °F 14.7 °F 21.0 °F 92% 30.23 in 8.0 mi SE 6.9 mph - N/A   Mostly Cloudy
9:54 PM 21.9 °F 14.5 °F 19.9 °F 92% 30.23 in 9.0 mi SE 5.8 mph - N/A   Scattered Clouds
10:54 PM 21.0 °F 13.4 °F 19.9 °F 96% 30.23 in 10.0 mi SE 5.8 mph - N/A   Scattered Clouds
11:54 PM 21.0 °F 14.6 °F 19.9 °F 96% 30.22 in 10.0 mi SSE 4.6 mph - N/A   Partly Cloudy